Location: Dompnac
(44.5644°N, 4.1026°E)
Time: 01:52:54
(UTC+00:00)

CUTE-I - Visible Passes

Search period start: 27 February 2021 00:00
Search period end: 09 March 2021 00:00
Orbit: 810 x 825 km, 98.7° (Epoch: 26 February)

Date Brightness Start Highest point End Pass type
(mag) Time Alt. Az. Time Alt. Az. Time Alt. Az.
27 Feb ? 04:41:07 10° ENE 04:43:32 13° E 04:45:57 10° ESE visible
01 Mar ? 05:36:06 10° NNE 05:41:09 41° E 05:46:11 10° SSE visible
01 Mar ? 18:42:36 10° WSW 18:45:23 14° W 18:48:11 10° WNW visible
02 Mar ? 05:15:00 10° NE 05:19:30 27° E 05:24:00 10° SSE visible
02 Mar ? 18:19:33 10° SW 18:23:37 22° W 18:27:44 10° NW visible
03 Mar ? 04:54:15 10° NE 04:57:47 18° E 05:01:19 10° SE visible
03 Mar ? 17:57:10 10° SSW 18:01:56 34° W 18:06:45 10° NNW visible
04 Mar ? 04:34:34 10° ENE 04:35:59 11° E 04:37:23 10° ESE visible
05 Mar ? 18:58:56 10° W 18:59:39 10° W 19:00:21 10° WNW visible
06 Mar ? 05:28:45 10° NNE 05:33:40 35° E 05:38:33 10° SSE visible
06 Mar ? 18:34:29 10° SW 18:37:50 17° W 18:41:12 10° NW visible
07 Mar ? 05:07:45 10° NE 05:12:00 23° E 05:16:12 10° SE visible
07 Mar ? 18:11:44 10° SSW 18:16:06 26° W 18:20:30 10° NW visible
08 Mar ? 04:47:12 10° NE 04:50:15 15° E 04:53:16 10° SE visible
